Tracking 19644 objects as of 26-Apr-2019
HD Live streaming from Space Station
objects crossing your sky now

INTELSAT 601

Track INTELSAT 601 now!
INTELSAT 601 is classified as:


NORAD ID: 21765
Int'l Code: 1991-075A
Perigee: 35,955.8 km
Apogee: 36,012.3 km
Inclination: 10.8 °
Period: 1,445.8 minutes
Semi major axis: 42355 km
RCS: 16.4798 m2 (large)
Launch date: October 29, 1991
Source: International Telecommunications Satellite Organization (ITSO)
Launch site: FRENCH GUIANA (FRGUI)

64 C-band, 24 Ku-band; Broadcasting, business services, direct-to-home TV broadcasting, telecommunications, VSAT networks; Indian Ocean region.
aabbcc
Your satellite tracking list
Your tracking list is empty




NASA's NSSDC Master Catalog

Two Line Element Set (TLE):
1 21765U 91075A   19115.63281962 -.00000273  00000-0  00000+0 0  9999
2 21765  10.8281  34.6164 0006670 301.5128 262.3651  0.99596645100320
Source of the keplerian elements: AFSPC